Location: Gu�tanj
(46.5431°N, 14.9692°E)
Time: 20:59:00
(UTC+00:00)

Cosmos 1703 Rocket - Pass Details

Date: 03 March 2021
Orbit: 604 x 634 km, 82.5° (Epoch: 20 April)

Event Time Altitude Azimuth Distance (km) Brightness Sun altitude
Rises 18:47:49 0° 346° (NNW) 2,912 7.4 -21.1°
Reaches altitude 10° 18:50:06 10° 341° (NNW) 1,996 6.6 -21.5°
Maximum altitude 18:54:23 51° 266° (W) 775 4.3 -22.2°
Drops below altitude 10° 18:58:36 10° 191° (S) 1,962 6.1 -22.9°
Enters shadow 18:59:27 - 188° (S) 2,303 6.4 -23.0°
